Temperature
16 16 16 16 16 16 16 16 16 16 17 17 17 17 16 16 16 16 16 15 15 15 15 15 15 15 15 15 15 15 16 16 16 16 16 16 16 15
15 15 15 16 15 16 16 16 16 16 16 17 17 16 16 16 16 16 15 15 15 15 16 15 15 16 16 15 15 16 16 16 17 17 17 16 16 15
14 14 15 15 15 15 16 16 16 16 16 16 16 16 16 16 16 15 15 15 15 15 15 15 15 16 16 16 16 16 16 17 17 17 16 16 15 15
14 14 14 14 15 15 15 15 16 16 15 16 16 16 16 15 15 15 15 15 15 15 15 15 15 16 16 16 16 16 16 16 16 16 15 15 15 15
13 13 13 14 14 14 14 15 15 15 15 16 16 16 16 15 15 15 15 15 15 15 15 16 16 16 16 16 16 16 16 16 16 15 15 15 15 15
12 13 13 13 13 13 13 14 14 15 15 15 16 16 15 15 15 15 15 15 15 15 15 15 16 16 16 17 17 17 17 16 16 16 15 15 15 15
12 12 12 12 12 13 13 13 14 14 15 15 15 15 15 15 15 15 15 15 15 15 15 14 15 15 16 17 17 17 17 16 16 16 15 15 15 15
11 11 11 12 12 12 12 12 13 13 14 14 14 14 14 14 14 14 14 14 14 14 14 14 14 14 15 16 16 17 17 16 16 16 16 15 15 15
11 11 11 11 11 12 12 12 12 12 12 13 13 13 13 13 13 13 13 13 14 14 14 14 14 14 14 14 15 16 16 16 16 16 16 16 16 16
11 11 11 11 11 11 11 11 11 12 12 12 12 12 12 12 13 13 13 13 13 13 14 14 14 13 13 14 14 15 16 16 16 16 16 16 16 16
11 11 11 11 11 11 11 11 11 11 11 12 12 12 12 12 12 12 12 12 13 13 13 13 13 13 13 13 13 13 14 14 15 15 16 16 16 16
11 11 11 11 11 11 12 12 12 12 12 12 12 12 12 12 12 12 12 12 12 12 12 12 12 12 12 12 12 12 12 13 13 14 15 15 15 15
11 10 11 11 11 11 11 11 12 12 12 12 12 12 12 12 11 12 12 12 11 11 11 11 12 12 12 12 12 12 12 12 12 13 14 15 14 14
10 10 10 10 10 10 11 11 11 12 12 12 12 12 12 12 12 12 12 12 12 12 11 11 11 11 11 11 11 11 11 11 12 12 13 13 13 13
9 9 9 10 10 10 10 10 11 11 11 11 12 12 12 12 12 12 12 12 12 12 12 11 11 11 11 11 11 11 11 11 11 12 12 12 12 12
9 9 9 9 9 9 10 10 10 10 10 11 11 11 12 12 12 12 12 12 12 12 12 12 11 12 12 11 11 11 12 12 12 12 12 12 12 11
8 8 9 9 9 9 9 9 10 10 10 10 10 11 11 11 12 12 12 12 12 12 12 12 12 12 12 12 12 12 12 12 12 12 12 12 12 12
8 8 8 8 8 9 9 9 9 9 9 10 10 10 10 10 11 11 12 12 12 12 12 12 12 12 12 12 12 12 12 12 12 12 12 12 12 12
7 8 8 8 9 9 8 8 8 9 9 9 9 9 9 10 10 10 11 11 11 12 12 12 12 12 12 12 12 12 12 12 12 12 12 12 12 11
8 8 8 8 8 8 8 8 8 8 8 8 8 8 9 9 9 9 10 10 11 11 11 11 12 12 12 12 12 12 12 12 12 12 12 12 12 12
8 8 7 7 7 7 7 7 7 7 7 7 7 7 8 8 8 9 9 9 10 10 10 11 11 11 11 12 12 12 12 12 12 12 12 12 12 11
7 7 6 6 6 6 6 6 6 6 6 6 6 6 6 7 7 7 8 8 9 9 9 9 10 10 11 11 11 11 11 11 11 11 11 11 11 11
6 6 6 5 5 5 5 5 5 5 4 4 4 5 5 5 5 6 6 6 7 7 8 8 9 9 10 10 10 10 10 11 11 11 11 11 11 11
Wind_Speed
7 9 7 6 7 6 2 1 2 3 4 4 3 2 3 6 5 5 7 12 16 19 20 22 24 25 25 23 23 21 21 21 21 21 21 21 20 19
7 8 6 5 6 5 4 3 4 4 4 3 3 2 3 5 7 8 8 13 16 17 17 17 19 20 20 20 20 19 20 20 21 21 21 20 19 20
5 5 6 6 5 5 5 4 4 4 6 6 5 3 3 5 5 7 10 9 11 16 16 16 16 18 19 20 19 18 18 18 18 19 20 20 20 20
5 7 8 7 7 5 5 5 5 5 5 8 6 4 5 7 7 7 6 9 11 17 19 19 19 19 20 20 19 19 18 19 19 19 19 20 21 21
5 6 7 8 8 7 7 5 5 5 5 6 6 3 3 5 7 5 5 3 6 14 21 21 22 22 22 22 22 21 21 21 21 21 21 22 21 21
6 6 6 7 7 8 7 7 6 5 5 5 5 3 3 5 6 4 3 1 1 1 6 13 19 22 23 22 22 23 23 23 23 22 22 22 21 21
6 6 6 6 6 6 6 7 8 7 6 5 4 3 2 4 4 4 2 0 2 0 1 4 6 8 12 18 21 22 23 22 22 22 22 21 21 22
5 4 5 8 9 8 5 6 9 7 7 6 5 5 5 3 3 2 2 2 1 2 2 2 2 3 4 8 15 19 21 20 20 21 21 21 22 22
9 8 9 10 11 10 5 1 3 8 9 7 7 7 5 5 3 3 3 2 1 2 2 1 2 4 2 6 4 4 7 10 14 18 20 21 22 22
10 9 8 9 12 12 6 6 6 6 7 6 6 5 4 4 3 2 2 2 1 0 1 1 1 1 1 3 2 1 3 5 7 9 13 17 17 17
8 9 10 10 16 17 12 8 6 4 3 5 5 3 2 2 2 1 1 0 0 1 1 1 1 1 3 4 3 4 5 5 6 7 9 11 12 11
5 8 13 12 14 16 9 8 8 8 10 5 3 5 5 3 0 2 3 2 1 1 2 1 0 0 2 4 6 6 6 5 5 6 8 9 11 6
6 7 8 14 14 15 11 6 7 8 9 7 1 2 3 4 3 3 1 1 1 0 1 0 0 1 1 1 3 2 3 4 5 5 7 7 7 3
8 7 7 13 13 13 10 13 16 13 6 6 5 5 4 3 1 3 3 3 3 3 4 3 0 1 1 1 3 1 1 1 2 2 3 5 5 3
5 5 7 11 10 8 11 14 12 8 7 6 5 5 3 2 2 1 4 3 2 2 4 4 3 2 2 2 2 3 2 2 3 2 3 3 3 3
5 6 7 8 7 7 8 8 6 6 6 5 4 4 5 4 3 2 1 2 3 2 2 3 3 3 2 3 5 5 4 3 3 2 1 2 3 7
8 5 4 4 4 4 5 4 5 6 7 7 6 5 5 4 4 4 3 4 2 2 2 0 1 3 4 4 3 3 3 3 3 2 3 5 7 5
7 6 6 5 4 2 3 4 4 4 5 6 6 8 7 6 4 4 4 5 5 2 2 4 2 0 1 4 6 4 3 3 2 1 1 5 5 4
5 8 8 6 3 2 2 3 3 4 4 4 5 5 6 8 7 5 4 5 5 5 3 1 2 2 1 1 2 4 3 2 3 3 3 3 5 6
7 8 6 3 2 3 4 4 4 5 5 6 6 5 6 6 7 7 5 4 4 5 4 3 3 2 2 3 4 2 1 1 1 2 3 3 4 7
4 5 7 7 7 7 6 6 6 6 7 7 7 7 6 5 6 7 7 6 4 3 3 4 6 8 4 1 3 4 3 2 4 3 2 2 1 2
6 6 6 6 5 6 6 6 6 6 7 7 7 7 8 7 8 9 9 9 7 5 3 2 3 4 2 1 1 2 4 3 3 4 5 5 3 3
5 5 5 5 5 4 5 6 7 7 8 9 8 8 8 8 8 7 8 9 10 11 9 6 3 2 3 4 5 5 2 4 4 3 3 8 9 8
Wind_Direction
282 274 267 269 272 278 290 263 239 265 269 238 234 213 121 101 124 112 122 134 138 143 148 155 161 164 171 181 192 198 200 204 209 213 218 221 222 226
268 270 277 278 291 294 284 252 226 233 263 257 235 277 127 129 136 130 132 142 152 157 162 167 171 173 179 188 195 200 204 210 214 216 219 220 223 226
296 323 332 326 328 327 317 291 257 230 251 271 252 240 163 141 149 148 149 157 161 166 171 178 185 188 191 197 204 210 214 219 221 221 221 223 225 229
7 8 360 356 354 342 324 300 277 247 242 270 279 241 196 168 169 173 168 177 171 180 185 192 198 203 206 209 213 219 223 228 230 230 229 229 230 234
30 35 22 14 7 354 337 327 304 292 262 262 275 256 195 173 176 192 200 182 178 186 198 206 210 213 216 217 218 222 227 231 234 235 235 236 238 240
60 59 42 33 12 354 1 0 349 345 323 288 276 262 206 176 172 185 213 243 236 161 203 219 221 221 223 221 220 223 228 231 234 236 237 239 241 244
70 67 56 40 20 9 16 9 10 14 1 338 310 297 243 166 172 167 180 257 320 36 5 252 212 215 225 227 225 225 227 230 233 237 239 240 242 244
70 82 74 36 7 358 4 30 26 22 11 8 10 22 30 44 80 106 136 144 258 29 55 317 309 245 228 225 226 223 226 230 234 237 238 238 239 241
44 41 41 31 14 353 335 213 46 45 37 35 43 36 36 29 55 88 90 97 94 7 39 356 358 326 16 50 58 183 207 224 234 237 237 236 233 233
44 36 36 26 12 357 26 78 72 42 34 51 56 54 46 29 36 69 112 125 141 175 99 116 33 277 154 93 92 167 197 212 221 222 224 224 223 223
78 54 38 30 12 11 19 25 34 37 59 77 83 97 99 61 12 35 96 72 98 133 71 161 137 187 197 180 179 215 223 213 201 195 192 192 193 195
116 87 52 33 19 14 12 14 10 348 337 315 219 208 204 194 66 30 28 17 1 43 93 38 79 145 227 179 168 191 205 209 196 191 183 174 170 173
39 57 33 16 13 3 358 5 342 319 306 309 272 196 168 167 182 165 124 53 342 12 111 155 247 163 227 170 139 171 187 184 193 196 188 172 171 168
41 34 23 12 2 349 345 341 342 340 334 360 22 24 46 54 79 132 164 182 193 185 179 169 264 266 199 157 119 108 318 260 215 193 169 151 149 137
42 25 6 5 359 355 351 343 342 338 344 357 360 353 358 349 308 224 192 199 201 150 145 167 188 206 170 137 135 166 189 220 225 213 185 177 159 136
5 347 339 345 345 340 345 351 351 343 332 319 328 329 331 330 328 343 336 232 193 144 94 86 80 84 119 173 168 175 186 177 185 200 169 82 97 107
338 323 318 319 325 326 324 331 345 352 353 350 348 333 325 334 340 341 334 321 335 156 176 267 77 92 84 50 96 130 130 116 123 130 130 112 102 100
328 304 296 276 271 292 319 321 324 337 343 346 348 346 341 338 334 342 349 337 329 319 188 182 187 333 52 39 34 43 68 77 61 29 103 132 122 109
276 278 281 280 278 283 287 302 312 319 320 321 325 332 338 338 334 336 338 322 316 316 315 215 197 206 229 213 356 14 75 61 14 8 37 102 138 151
252 264 280 308 344 2 4 357 350 346 340 332 325 325 326 322 323 324 323 314 297 297 315 350 335 297 253 193 173 199 195 147 95 46 30 29 84 112
346 19 26 25 19 11 10 7 359 352 345 340 336 332 326 325 333 338 336 337 333 323 321 320 312 309 296 166 156 168 170 153 142 133 104 45 6 154
23 20 19 10 6 10 9 4 355 350 343 340 350 355 357 1 359 360 0 355 353 351 344 334 326 319 339 6 304 204 177 173 143 135 150 162 148 129
24 10 353 348 6 13 12 3 356 360 4 1 358 358 358 354 352 0 2 4 10 7 1 359 11 22 28 40 23 353 313 182 177 180 215 211 198 191
Height
1499 1501 1501 1500 1500 1500 1500 1499 1499 1498 1497 1497 1498 1497 1496 1493 1492 1490 1487 1486 1486 1488 1489 1491 1494 1497 1502 1508 1514 1519 1522 1525 1528 1531 1533 1535 1537 1539
1497 1497 1497 1496 1496 1496 1495 1494 1494 1495 1493 1493 1494 1494 1493 1492 1491 1490 1488 1487 1489 1491 1493 1496 1498 1502 1505 1510 1514 1518 1521 1523 1525 1527 1529 1531 1533 1535
1495 1494 1494 1493 1492 1491 1490 1490 1490 1490 1489 1489 1490 1490 1489 1490 1490 1490 1489 1489 1491 1493 1496 1499 1503 1506 1509 1511 1514 1517 1519 1521 1522 1524 1526 1528 1530 1531
1491 1491 1490 1489 1488 1487 1486 1486 1486 1486 1486 1485 1485 1486 1486 1487 1488 1489 1490 1491 1492 1495 1498 1501 1504 1507 1509 1511 1513 1515 1517 1518 1520 1521 1523 1525 1526 1527
1489 1488 1487 1486 1485 1484 1483 1482 1482 1483 1482 1482 1481 1482 1483 1484 1486 1488 1489 1491 1493 1495 1498 1501 1503 1505 1507 1509 1510 1512 1513 1515 1516 1517 1519 1521 1522 1524
1487 1486 1484 1483 1483 1482 1480 1479 1479 1479 1479 1479 1478 1478 1480 1481 1483 1486 1487 1489 1491 1494 1496 1499 1501 1503 1504 1505 1506 1508 1509 1511 1512 1514 1515 1517 1519 1520
1486 1485 1483 1483 1482 1481 1480 1478 1478 1477 1477 1476 1475 1475 1476 1478 1480 1483 1485 1487 1488 1491 1493 1495 1497 1499 1499 1500 1501 1503 1505 1507 1509 1510 1512 1513 1515 1516
1487 1485 1484 1483 1483 1482 1480 1479 1478 1478 1477 1476 1475 1474 1474 1476 1478 1480 1481 1483 1486 1488 1490 1491 1494 1495 1495 1496 1497 1499 1501 1503 1505 1507 1508 1510 1511 1512
1488 1487 1486 1485 1485 1483 1482 1480 1480 1479 1478 1477 1476 1475 1475 1475 1476 1477 1478 1480 1483 1485 1486 1488 1489 1490 1492 1491 1493 1495 1497 1499 1501 1503 1505 1506 1507 1508
1492 1491 1489 1488 1487 1486 1485 1483 1482 1481 1479 1477 1477 1476 1476 1477 1477 1477 1478 1479 1481 1482 1484 1484 1486 1487 1488 1488 1489 1492 1494 1495 1497 1498 1500 1501 1502 1503
1496 1494 1492 1491 1490 1488 1486 1485 1484 1483 1482 1481 1479 1479 1478 1478 1477 1477 1477 1478 1479 1479 1480 1480 1481 1483 1483 1483 1485 1487 1490 1492 1493 1494 1495 1496 1497 1498
1498 1497 1496 1494 1492 1491 1489 1487 1486 1485 1483 1483 1483 1482 1480 1479 1478 1477 1477 1477 1478 1478 1477 1477 1477 1478 1479 1477 1477 1483 1485 1487 1489 1490 1492 1493 1493 1494
1500 1499 1498 1497 1495 1493 1492 1490 1488 1486 1485 1484 1484 1484 1482 1481 1479 1478 1478 1478 1478 1477 1476 1475 1475 1475 1476 1476 1476 1476 1478 1482 1484 1486 1487 1488 1489 1490
1500 1499 1498 1497 1496 1495 1493 1491 1489 1487 1486 1485 1485 1485 1485 1484 1482 1481 1480 1479 1478 1477 1475 1474 1473 1472 1472 1473 1473 1474 1475 1478 1481 1483 1484 1484 1485 1486
1499 1499 1498 1497 1496 1495 1494 1492 1490 1488 1487 1487 1486 1486 1486 1485 1483 1482 1481 1481 1479 1478 1476 1475 1474 1473 1472 1472 1472 1473 1475 1477 1480 1481 1483 1484 1485 1486
1499 1498 1497 1496 1495 1494 1493 1492 1491 1490 1488 1488 1487 1487 1486 1485 1484 1483 1482 1481 1480 1479 1478 1477 1477 1476 1475 1474 1474 1476 1478 1480 1481 1482 1484 1484 1485 1486
1497 1496 1495 1494 1493 1492 1491 1491 1490 1489 1488 1487 1486 1486 1485 1484 1483 1482 1481 1480 1480 1479 1478 1478 1478 1478 1478 1478 1478 1479 1480 1481 1482 1483 1484 1485 1486 1488
1496 1495 1493 1492 1492 1491 1490 1489 1488 1488 1487 1486 1485 1484 1483 1482 1481 1481 1480 1479 1479 1478 1478 1478 1478 1478 1479 1480 1480 1480 1480 1482 1482 1483 1484 1485 1486 1488
1494 1493 1492 1491 1490 1490 1489 1488 1487 1487 1486 1485 1484 1483 1481 1480 1479 1478 1478 1477 1477 1476 1477 1477 1477 1478 1479 1479 1480 1481 1481 1481 1482 1483 1484 1485 1485 1486
1491 1491 1491 1490 1489 1488 1488 1487 1486 1485 1485 1484 1482 1481 1480 1478 1477 1476 1476 1476 1475 1474 1474 1474 1475 1476 1477 1478 1478 1479 1480 1480 1481 1482 1483 1484 1485 1485
1491 1490 1489 1488 1487 1487 1486 1486 1485 1484 1483 1482 1481 1480 1478 1477 1475 1474 1473 1472 1472 1472 1471 1470 1471 1472 1474 1476 1476 1476 1477 1478 1479 1479 1481 1482 1483 1484
1491 1490 1489 1489 1488 1487 1486 1485 1484 1484 1482 1481 1480 1478 1477 1475 1473 1471 1470 1470 1469 1469 1468 1468 1468 1469 1470 1471 1472 1473 1474 1475 1476 1476 1477 1479 1480 1481
1490 1489 1489 1488 1487 1487 1485 1485 1484 1483 1481 1479 1478 1476 1475 1474 1473 1471 1469 1468 1467 1466 1465 1465 1465 1465 1465 1465 1467 1469 1471 1471 1472 1473 1474 1475 1477 1478